�������l�o���
Date,Time,MP-1(��Sv/h),MP-2(��Sv/h),MP-3(��Sv/h),MP-4(��Sv/h),MP-5(��Sv/h),MP-6(��Sv/h),MP-7(��Sv/h),MP-8(��Sv/h),����,����(m/s),���J
2016/11/25,00:00,1.073,1.808,1.212,2.032,1.404,0.566,1.030,0.954,�k�k��,4.6,��
2016/11/25,00:10,1.070,1.806,1.211,2.033,1.401,0.566,1.028,0.956,�k�k��,4.6,��
2016/11/25,00:20,1.069,1.807,1.211,2.035,1.403,0.564,1.028,0.956,�k�k��,5.1,��
2016/11/25,00:30,1.069,1.808,1.214,2.034,1.400,0.565,1.029,0.955,�k�k��,5.0,��
2016/11/25,00:40,1.072,1.804,1.209,2.034,1.402,0.563,1.030,0.956,�k�k��,5.9,��
2016/11/25,00:50,1.071,1.806,1.210,2.032,1.402,0.566,1.029,0.955,�k�k��,6.1,��
2016/11/25,01:00,1.070,1.804,1.211,2.034,1.399,0.564,1.029,0.954,�k�k��,6.1,��
2016/11/25,01:10,1.072,1.806,1.213,2.037,1.400,0.564,1.029,0.956,�k��,6.1,��
2016/11/25,01:20,1.069,1.808,1.212,2.036,1.401,0.564,1.031,0.954,�k��,6.4,��
2016/11/25,01:30,1.071,1.804,1.213,2.034,1.402,0.565,1.030,0.956,�k��,5.2,��
2016/11/25,01:40,1.070,1.806,1.211,2.040,1.401,0.563,1.032,0.957,�k��,5.3,��
2016/11/25,01:50,1.071,1.806,1.210,2.036,1.399,0.565,1.029,0.955,���k��,5.5,��
2016/11/25,02:00,1.070,1.803,1.210,2.035,1.401,0.563,1.029,0.955,�k��,5.7,��
2016/11/25,02:10,1.071,1.808,1.210,2.038,1.400,0.565,1.030,0.955,�k��,6.1,��
2016/11/25,02:20,1.070,1.808,1.210,2.038,1.400,0.565,1.027,0.958,�k��,5.1,��
2016/11/25,02:30,1.067,1.807,1.213,2.035,1.402,0.565,1.029,0.955,�k��,3.5,��
2016/11/25,02:40,1.069,1.804,1.209,2.037,1.401,0.564,1.030,0.955,�k��,3.5,��
2016/11/25,02:50,1.070,1.804,1.210,2.034,1.400,0.565,1.029,0.955,�k��,3.6,��
2016/11/25,03:00,1.069,1.803,1.210,2.036,1.400,0.564,1.028,0.956,�k��,4.7,��
2016/11/25,03:10,1.069,1.805,1.210,2.040,1.400,0.563,1.030,0.955,�k��,5.4,��
2016/11/25,03:20,1.068,1.804,1.209,2.034,1.399,0.565,1.028,0.957,�k�k��,5.3,��
2016/11/25,03:30,1.069,1.806,1.211,2.036,1.401,0.563,1.030,0.954,�k�k��,4.5,��
2016/11/25,03:40,1.068,1.807,1.209,2.036,1.399,0.564,1.028,0.956,�k��,4.5,��
2016/11/25,03:50,1.069,1.805,1.211,2.035,1.399,0.563,1.030,0.956,�k��,4.5,��
2016/11/25,04:00,1.068,1.804,1.211,2.039,1.400,0.563,1.031,0.956,�k��,4.1,��
2016/11/25,04:10,1.068,1.805,1.209,2.036,1.399,0.563,1.030,0.956,�k��,4.3,��
2016/11/25,04:20,1.069,1.807,1.209,2.035,1.400,0.564,1.030,0.955,�k��,4.6,��
2016/11/25,04:30,1.069,1.802,1.209,2.038,1.401,0.561,1.029,0.956,�k��,4.5,��
2016/11/25,04:40,1.069,1.804,1.210,2.035,1.398,0.565,1.029,0.956,�k��,4.7,��
2016/11/25,04:50,1.069,1.804,1.209,2.036,1.399,0.564,1.029,0.957,�k��,4.5,��
2016/11/25,05:00,1.070,1.804,1.210,2.037,1.399,0.564,1.028,0.957,�k��,3.8,��
2016/11/25,05:10,1.065,1.804,1.209,2.037,1.399,0.564,1.029,0.955,�k��,3.2,��
2016/11/25,05:20,1.067,1.804,1.208,2.038,1.399,0.563,1.028,0.956,�k�k��,2.6,��
2016/11/25,05:30,1.068,1.807,1.208,2.038,1.400,0.562,1.031,0.956,�k��,1.9,��
2016/11/25,05:40,1.068,1.803,1.206,2.037,1.400,0.563,1.030,0.956,���k��,1.9,��
2016/11/25,05:50,1.068,1.804,1.209,2.037,1.398,0.563,1.027,0.956,��,0.9,��
2016/11/25,06:00,1.068,1.805,1.207,2.037,1.398,0.564,1.029,0.957,-,CALM,��
2016/11/25,06:10,1.071,1.803,1.210,2.035,1.395,0.563,1.030,0.955,-,CALM,��
2016/11/25,06:20,1.069,1.804,1.207,2.037,1.397,0.562,1.029,0.955,�쐼,0.6,��
2016/11/25,06:30,1.069,1.805,1.208,2.034,1.395,0.561,1.031,0.955,��쐼,1.2,��
2016/11/25,06:40,1.069,1.804,1.208,2.034,1.398,0.563,1.029,0.956,�쐼,2.6,��
2016/11/25,06:50,1.068,1.803,1.206,2.036,1.396,0.563,1.029,0.957,���쐼,3.2,��
2016/11/25,07:00,1.069,1.803,1.207,2.036,1.395,0.561,1.028,0.955,�쐼,2.9,��
2016/11/25,07:10,1.070,1.803,1.207,2.038,1.398,0.562,1.029,0.957,�쐼,3.2,��
2016/11/25,07:20,1.068,1.804,1.209,2.036,1.395,0.562,1.030,0.956,�쐼,3.6,��
2016/11/25,07:30,1.067,1.803,1.206,2.038,1.395,0.561,1.029,0.956,�쐼,4.5,��
2016/11/25,07:40,1.068,1.803,1.206,2.035,1.396,0.562,1.030,0.957,���쐼,3.9,��
2016/11/25,07:50,1.068,1.803,1.208,2.038,1.399,0.561,1.030,0.956,�쐼,3.9,��
2016/11/25,08:00,1.071,1.801,1.208,2.038,1.398,0.562,1.030,0.956,�쐼,3.6,��
2016/11/25,08:10,1.069,1.803,1.208,2.039,1.398,0.564,1.030,0.958,�쐼,3.6,��
2016/11/25,08:20,1.073,1.802,1.211,2.040,1.400,0.562,1.030,0.957,�쐼,2.8,��
2016/11/25,08:30,1.072,1.808,1.210,2.040,1.400,0.563,1.032,0.958,��쐼,2.0,��
2016/11/25,08:40,1.071,1.807,1.212,2.038,1.401,0.563,1.032,0.959,�쐼,2.0,��
2016/11/25,08:50,1.072,1.807,1.211,2.041,1.403,0.563,1.032,0.959,�쐼,2.0,��
2016/11/25,09:00,1.077,1.809,1.211,2.039,1.404,0.563,1.032,0.959,���쐼,2.6,��
2016/11/25,09:10,1.073,1.811,1.213,2.042,1.404,0.563,1.033,0.957,�쐼,3.2,��
2016/11/25,09:20,1.077,1.810,1.214,2.042,1.403,0.563,1.034,0.957,�쐼,3.1,��
2016/11/25,09:30,1.074,1.811,1.219,2.042,1.386,0.565,1.034,0.959,��쐼,3.4,��
2016/11/25,09:40,1.074,1.815,1.218,2.043,1.388,0.568,1.035,0.960,��쐼,3.5,��
2016/11/25,09:50,1.075,1.815,1.215,2.044,1.409,0.567,1.033,0.960,��쐼,3.2,��
2016/11/25,10:00,1.076,1.817,1.215,2.047,1.410,0.565,1.034,0.956,��,3.8,��
2016/11/25,10:10,1.077,1.815,1.218,2.044,1.410,0.566,1.033,0.960,��,4.2,��
2016/11/25,10:20,1.075,1.817,1.218,2.047,1.408,0.566,1.032,0.959,��쓌,5.0,��
2016/11/25,10:30,1.080,1.818,1.219,2.049,1.410,0.567,1.036,0.960,��쓌,4.8,��
2016/11/25,10:40,1.083,1.820,1.219,2.047,1.411,0.567,1.036,0.960,��쓌,4.6,��
2016/11/25,10:50,1.083,1.820,1.221,2.048,1.375,0.568,1.033,0.962,��쓌,4.2,��
2016/11/25,11:00,1.084,1.820,1.219,2.048,1.378,0.569,1.035,0.961,��쓌,5.3,��
2016/11/25,11:10,1.082,1.820,1.219,2.049,1.373,0.569,1.036,0.960,��쓌,5.4,��
2016/11/25,11:20,1.084,1.819,1.220,2.047,1.399,0.569,1.036,0.962,��쓌,6.5,��
2016/11/25,11:30,1.086,1.820,1.222,2.047,1.413,0.569,1.035,0.962,��쓌,6.6,��
2016/11/25,11:40,1.086,1.822,1.223,2.048,1.415,0.569,1.036,0.961,��쓌,7.9,��
2016/11/25,11:50,1.086,1.823,1.222,2.049,1.416,0.570,1.036,0.960,��쓌,7.3,��
2016/11/25,12:00,1.086,1.822,1.224,2.049,1.416,0.569,1.035,0.960,��,7.5,��
2016/11/25,12:10,1.084,1.822,1.226,2.053,1.418,0.570,1.036,0.961,��,6.8,��
2016/11/25,12:20,1.084,1.818,1.225,2.049,1.417,0.570,1.039,0.962,��,8.9,��
2016/11/25,12:30,1.088,1.814,1.225,2.052,1.418,0.571,1.037,0.962,��,7.4,��
2016/11/25,12:40,1.086,1.819,1.223,2.051,1.419,0.569,1.038,0.960,��,6.3,��
2016/11/25,12:50,1.086,1.818,1.225,2.052,1.419,0.570,1.037,0.963,��,5.5,��
2016/11/25,13:00,1.085,1.822,1.226,2.052,1.417,0.572,1.036,0.963,��,5.9,��
2016/11/25,13:10,1.083,1.823,1.225,2.053,1.419,0.570,1.037,0.962,��,5.5,��
2016/11/25,13:20,1.084,1.820,1.224,2.052,1.419,0.568,1.039,0.963,��,6.1,��
2016/11/25,13:30,1.087,1.827,1.225,2.053,1.424,0.565,1.037,0.961,��,4.4,��
2016/11/25,13:40,1.088,1.828,1.216,2.054,1.424,0.568,1.036,0.963,��쐼,3.6,��
2016/11/25,13:50,1.086,1.829,1.182,2.053,1.422,0.569,1.038,0.963,��쐼,3.2,��
2016/11/25,14:00,1.089,1.826,1.181,2.055,1.422,0.572,1.038,0.962,��쐼,2.8,��
2016/11/25,14:10,1.091,1.826,1.193,2.056,1.421,0.573,1.038,0.964,��쐼,3.3,��
2016/11/25,14:20,1.091,1.827,1.200,2.056,1.425,0.573,1.039,0.961,��쐼,2.3,��
2016/11/25,14:30,1.092,1.827,1.201,2.054,1.424,0.571,1.038,0.963,��,3.2,��
2016/11/25,14:40,1.091,1.829,1.214,2.050,1.424,0.572,1.038,0.963,��,3.1,��
2016/11/25,14:50,1.092,1.828,1.224,2.053,1.425,0.572,1.038,0.962,��쐼,4.4,��
2016/11/25,15:00,1.092,1.829,1.224,2.055,1.423,0.571,1.040,0.962,�쐼,3.4,��
2016/11/25,15:10,1.092,1.825,1.221,2.054,1.426,0.573,1.039,0.961,��쐼,2.6,��
2016/11/25,15:20,1.093,1.825,1.217,2.054,1.424,0.572,1.039,0.962,�쐼,1.9,��
2016/11/25,15:30,1.092,1.831,1.226,2.052,1.425,0.572,1.039,0.962,��,1.9,��
2016/11/25,15:40,1.094,1.826,1.223,2.055,1.425,0.573,1.037,0.963,��,3.4,��
2016/11/25,15:50,1.091,1.830,1.224,2.053,1.426,0.571,1.039,0.964,���쐼,4.2,��
2016/11/25,16:00,1.091,1.825,1.224,2.052,1.424,0.572,1.038,0.963,���쐼,3.7,��
2016/11/25,16:10,1.092,1.828,1.223,2.054,1.427,0.572,1.038,0.962,���쐼,3.4,��
2016/11/25,16:20,1.090,1.828,1.225,2.056,1.424,0.573,1.038,0.965,�쐼,2.6,��
2016/11/25,16:30,1.092,1.828,1.223,2.052,1.424,0.571,1.039,0.963,�쐼,4.1,��
2016/11/25,16:40,1.089,1.831,1.221,2.054,1.425,0.571,1.038,0.962,�쐼,4.5,��
2016/11/25,16:50,1.092,1.829,1.222,2.053,1.423,0.570,1.039,0.963,�쐼,4.2,��
2016/11/25,17:00,1.091,1.828,1.223,2.056,1.423,0.572,1.041,0.962,�쐼,4.3,��
2016/11/25,17:10,1.090,1.829,1.222,2.051,1.426,0.571,1.040,0.962,�쐼,4.7,��
2016/11/25,17:20,1.092,1.829,1.224,2.055,1.424,0.570,1.042,0.963,�쐼,3.3,��
2016/11/25,17:30,1.092,1.830,1.223,2.055,1.423,0.570,1.041,0.961,�쐼,2.6,��
2016/11/25,17:40,1.090,1.830,1.224,2.054,1.422,0.572,1.040,0.964,�쐼,2.8,��
2016/11/25,17:50,1.091,1.828,1.223,2.055,1.423,0.570,1.039,0.961,���쐼,3.2,��
2016/11/25,18:00,1.089,1.829,1.223,2.055,1.423,0.570,1.039,0.962,��,2.6,��
2016/11/25,18:10,1.091,1.826,1.223,2.056,1.424,0.571,1.038,0.963,��,2.5,��
2016/11/25,18:20,1.091,1.829,1.223,2.056,1.424,0.570,1.039,0.962,�k��,3.2,��
2016/11/25,18:30,1.090,1.828,1.222,2.055,1.424,0.569,1.040,0.961,�k�k��,3.5,��
2016/11/25,18:40,1.091,1.826,1.221,2.053,1.422,0.570,1.041,0.961,�k�k��,4.7,��
2016/11/25,18:50,1.089,1.831,1.220,2.054,1.426,0.570,1.040,0.960,�k,5.1,��
2016/11/25,19:00,1.089,1.831,1.226,2.051,1.422,0.570,1.040,0.963,�k�k��,5.3,��
2016/11/25,19:10,1.090,1.829,1.226,2.055,1.428,0.571,1.039,0.961,�k�k��,6.3,��
2016/11/25,19:20,1.090,1.827,1.222,2.054,1.425,0.570,1.040,0.962,�k�k��,5.8,��
2016/11/25,19:30,1.091,1.829,1.224,2.055,1.425,0.569,1.038,0.961,�k,5.8,��
2016/11/25,19:40,1.088,1.830,1.223,2.056,1.425,0.569,1.039,0.961,�k,7.1,��
2016/11/25,19:50,1.089,1.830,1.221,2.055,1.424,0.569,1.038,0.963,�k�k��,6.6,��
2016/11/25,20:00,1.089,1.831,1.221,2.053,1.422,0.570,1.040,0.963,�k�k��,6.9,��
2016/11/25,20:10,1.088,1.829,1.222,2.056,1.423,0.570,1.040,0.961,�k�k��,7.2,��
2016/11/25,20:20,1.091,1.829,1.220,2.055,1.424,0.568,1.040,0.962,�k�k��,8.0,��
2016/11/25,20:30,1.088,1.831,1.223,2.055,1.425,0.569,1.040,0.962,�k�k��,7.8,��
2016/11/25,20:40,1.088,1.832,1.223,2.056,1.423,0.570,1.039,0.964,�k�k��,8.0,��
2016/11/25,20:50,1.088,1.828,1.221,2.053,1.425,0.570,1.038,0.963,�k�k��,8.1,��
2016/11/25,21:00,1.088,1.829,1.221,2.056,1.422,0.570,1.037,0.962,�k�k��,8.0,��
2016/11/25,21:10,1.087,1.830,1.224,2.054,1.425,0.568,1.039,0.961,�k�k��,7.5,��
2016/11/25,21:20,1.086,1.830,1.223,2.051,1.423,0.569,1.041,0.960,�k�k��,7.6,��
2016/11/25,21:30,1.087,1.827,1.220,2.054,1.425,0.569,1.040,0.961,�k�k��,8.4,��
2016/11/25,21:40,1.088,1.831,1.222,2.051,1.422,0.570,1.039,0.963,�k�k��,8.1,��
2016/11/25,21:50,1.085,1.828,1.223,2.056,1.423,0.569,1.038,0.960,�k�k��,7.3,��
2016/11/25,22:00,1.085,1.831,1.221,2.053,1.423,0.569,1.038,0.961,�k�k��,7.9,��
2016/11/25,22:10,1.085,1.827,1.222,2.057,1.422,0.568,1.039,0.963,�k�k��,8.5,��
2016/11/25,22:20,1.085,1.830,1.220,2.055,1.425,0.567,1.040,0.961,�k�k��,9.3,��
2016/11/25,22:30,1.085,1.831,1.220,2.054,1.425,0.570,1.037,0.961,�k�k��,8.6,��
2016/11/25,22:40,1.086,1.826,1.223,2.056,1.424,0.568,1.039,0.961,�k�k��,8.8,��
2016/11/25,22:50,1.084,1.830,1.222,2.056,1.426,0.569,1.039,0.961,�k�k��,7.7,��
2016/11/25,23:00,1.084,1.829,1.220,2.055,1.424,0.568,1.039,0.963,�k�k��,8.1,��
2016/11/25,23:10,1.085,1.836,1.220,2.055,1.425,0.569,1.039,0.961,�k�k��,6.7,��
2016/11/25,23:20,1.086,1.832,1.219,2.054,1.425,0.569,1.039,0.963,�k�k��,7.0,��
2016/11/25,23:30,1.085,1.830,1.224,2.057,1.424,0.570,1.037,0.960,�k�k��,7.9,��
2016/11/25,23:40,1.086,1.828,1.221,2.055,1.425,0.570,1.037,0.963,�k�k��,9.0,��
2016/11/25,23:50,1.084,1.829,1.223,2.054,1.422,0.570,1.038,0.961,�k�k��,8.1,��
